Theta_e
320 319 321 319 321 321 325 331 329 334 335 329 326 326 324 326 329 331 333 332 336 336 332 336 338 337 336 338 342 341 340 344 346 343 342 337 333 337 337 337 338 338 339 340 340 340 339 340 339 337 337 334 333 332 332 333 332 332 331 330 335 336 336 336 336 336 335 335 336 336 335 333 331 330 329 329 329 329 329 330 330 330 330 329 329 329 329 329 329 329 329 329 329 329 328 328 328
321 320 321 320 322 319 325 332 331 335 335 324 323 327 325 328 329 333 339 334 336 337 335 339 341 341 339 338 340 340 336 337 337 335 334 334 336 338 337 338 338 339 340 339 340 339 339 339 338 337 335 333 332 331 333 334 331 331 333 331 333 334 333 333 333 334 333 334 334 334 335 334 332 330 330 330 329 329 329 329 330 330 330 329 329 329 329 329 329 328 329 329 329 328 328 328 328
321 321 321 321 322 321 332 331 326 335 334 325 327 333 330 331 334 338 341 335 334 336 336 337 342 341 339 343 341 339 337 334 334 334 335 337 338 338 338 338 338 340 339 339 339 339 339 338 338 336 334 333 332 331 333 332 330 332 333 332 332 332 333 333 333 333 333 334 332 331 333 333 332 332 332 331 330 330 328 328 330 330 330 330 328 329 329 328 328 328 329 329 329 328 327 327 327
320 322 321 321 323 328 346 338 333 339 332 328 329 333 337 339 337 337 336 334 334 334 334 337 342 336 337 347 340 338 339 335 334 335 337 337 338 339 338 338 339 339 339 339 339 339 339 338 336 334 333 333 333 333 332 330 330 333 333 332 332 333 333 333 334 333 333 333 331 331 332 332 332 333 333 332 332 331 329 328 328 329 329 329 328 329 329 328 329 328 329 328 328 327 326 326 326
320 322 319 321 327 329 339 331 332 335 326 330 328 331 345 345 338 335 335 333 333 333 333 338 344 336 336 342 338 340 339 335 334 334 337 337 338 339 338 339 339 339 339 339 338 339 338 337 335 334 333 333 334 334 332 329 329 332 332 332 333 333 333 333 333 333 332 332 332 332 332 332 333 334 333 333 333 332 330 328 327 328 328 328 328 329 328 327 327 327 328 328 327 326 325 326 326
320 322 319 321 321 321 332 324 325 331 327 334 330 334 346 342 339 339 336 330 331 333 333 338 343 341 341 339 336 337 335 335 335 333 335 337 338 338 339 338 338 339 339 338 338 338 337 336 334 334 333 332 334 334 332 329 328 330 331 332 332 333 333 332 333 333 332 332 332 332 332 333 333 334 333 333 333 332 330 328 327 328 328 328 327 328 328 328 327 327 327 327 326 324 324 325 326
320 321 324 328 323 324 337 326 330 335 325 328 329 337 342 340 340 338 334 329 330 333 335 339 339 342 344 338 335 334 332 334 333 333 336 337 338 338 339 338 339 339 338 339 337 337 337 335 334 334 332 332 333 334 332 329 329 331 332 332 332 332 332 332 333 332 332 332 332 332 330 331 332 333 333 333 333 333 331 328 327 328 329 328 327 327 327 327 327 326 326 326 325 323 322 322 324
320 322 329 337 336 337 341 328 334 333 319 321 328 337 339 340 339 334 333 331 330 332 336 336 335 342 341 334 339 337 331 333 332 333 336 337 338 338 339 338 338 338 338 338 337 337 336 335 335 333 332 332 333 334 332 329 329 331 331 331 331 331 331 332 332 332 332 332 332 332 331 329 330 332 333 333 333 333 331 329 327 327 329 328 327 327 326 327 326 325 326 325 323 322 322 322 323
320 322 327 334 333 336 341 331 328 326 320 324 328 336 337 337 336 330 330 330 328 331 334 333 334 336 337 340 346 337 330 333 333 333 335 336 337 338 338 338 338 337 338 337 336 336 336 335 334 333 332 333 334 334 333 330 330 330 329 328 330 330 330 331 332 332 332 331 330 330 330 327 327 330 332 332 333 332 332 330 327 326 326 326 327 325 325 325 325 324 324 323 322 322 322 322 322
322 323 328 334 332 327 330 329 326 323 320 322 326 333 337 335 332 328 329 329 328 332 335 333 337 338 341 350 346 335 331 332 333 335 336 335 336 338 339 337 338 337 337 336 336 336 335 335 334 334 333 333 335 334 333 331 330 330 329 328 329 329 330 331 331 331 330 329 328 326 326 327 327 328 331 332 332 331 331 330 328 326 324 326 326 323 322 322 321 321 321 321 322 323 323 323 323
327 330 336 336 332 325 325 328 330 331 323 322 326 327 332 332 328 329 330 329 326 334 337 334 343 345 345 347 341 334 331 331 334 336 336 336 336 338 339 338 338 336 336 336 335 336 335 335 334 334 333 332 334 334 332 330 329 329 328 329 330 329 330 330 328 327 328 329 329 326 326 329 329 329 330 330 331 330 329 329 328 326 324 327 326 322 320 319 319 319 320 321 322 323 323 323 323
326 334 343 335 329 326 329 331 332 341 334 326 327 322 327 328 326 330 331 329 327 335 339 334 340 346 349 348 342 335 329 332 335 337 337 336 337 338 339 338 338 337 336 336 335 335 335 335 335 335 333 331 333 332 331 329 328 327 329 329 330 329 329 329 327 326 328 330 329 327 329 330 330 330 329 329 330 330 329 328 327 326 325 326 325 322 319 319 319 319 320 320 321 322 322 323 322
332 335 338 328 327 328 328 330 328 334 332 328 326 319 321 326 327 331 332 331 328 331 330 327 336 347 353 347 341 335 330 332 335 338 337 337 339 338 338 337 337 337 336 336 335 335 335 335 335 335 333 332 332 331 330 330 328 326 328 329 329 330 330 330 329 328 329 329 328 328 329 329 329 330 329 329 330 330 329 328 327 326 325 325 324 321 318 318 319 319 320 319 319 320 321 321 321
334 338 336 326 327 331 330 328 325 323 325 329 325 319 321 324 328 332 330 329 329 328 319 321 334 344 344 341 343 342 334 331 334 339 338 338 339 337 337 337 337 337 336 335 335 334 334 335 335 335 334 333 332 330 330 330 328 326 328 328 328 330 331 331 330 328 328 326 327 328 328 328 328 328 329 330 330 330 329 328 327 326 325 324 322 319 318 319 319 320 320 319 320 320 321 321 321
328 339 339 331 327 329 328 326 329 325 325 328 321 320 325 321 325 332 329 329 329 324 319 324 330 325 329 338 345 344 334 330 333 337 338 339 338 338 337 336 337 336 336 335 333 333 333 334 335 335 334 334 332 330 331 330 329 327 328 329 329 331 331 331 329 327 326 324 324 325 326 326 327 327 327 328 329 329 328 328 327 325 325 322 319 317 318 319 319 320 320 320 321 321 321 321 322
331 341 335 331 328 326 327 324 327 328 328 327 319 320 324 320 323 329 324 326 327 322 325 329 322 320 330 336 333 332 331 331 331 335 338 339 338 338 336 336 337 336 336 334 333 332 332 333 334 335 334 334 332 329 330 331 329 327 328 330 330 331 331 330 329 327 326 324 323 323 323 324 326 327 327 326 328 328 327 327 326 325 323 319 316 317 318 319 320 321 321 321 321 321 322 322 322
331 338 335 330 329 328 328 325 325 327 329 325 317 319 326 323 320 321 319 323 328 327 332 331 322 326 335 335 329 328 330 331 330 333 336 337 337 336 336 336 335 335 335 334 333 331 331 333 334 334 334 334 332 329 330 331 329 328 327 328 330 330 330 329 328 327 326 324 324 324 322 322 323 325 326 326 327 327 327 327 325 324 321 316 316 317 318 318 319 321 321 321 322 322 322 322 322
328 334 334 330 331 330 328 327 325 323 324 321 318 320 327 326 320 319 319 326 331 330 334 335 331 331 331 330 330 330 330 330 330 332 334 334 335 335 335 335 334 334 334 333 333 332 332 333 334 335 334 334 332 330 330 330 330 329 327 326 329 329 329 328 327 326 326 324 323 324 323 322 322 323 325 325 325 325 326 326 325 322 318 315 317 318 318 318 318 321 322 322 322 322 322 322 322
335 336 330 331 335 330 324 327 326 320 319 320 319 319 323 324 322 321 322 328 329 330 333 335 339 337 332 330 330 330 329 330 330 331 332 332 333 334 334 334 334 333 332 333 332 332 333 333 334 334 334 334 333 331 330 330 330 330 328 326 327 328 327 327 326 325 325 323 321 321 322 322 323 323 324 325 324 324 323 324 324 320 316 316 317 318 318 317 317 320 321 322 322 322 321 321 322
334 333 329 334 334 327 321 323 324 320 318 320 319 318 321 321 320 320 324 329 328 331 333 331 341 345 340 332 328 328 328 329 330 331 331 330 332 333 333 332 332 332 332 332 332 332 333 333 334 334 334 334 333 331 330 330 330 330 329 327 327 326 325 326 326 325 324 323 321 319 319 320 322 323 324 324 323 322 321 321 320 317 315 316 317 317 317 317 317 318 320 321 322 322 321 321 322
327 328 332 335 328 325 321 318 320 319 317 320 320 318 319 317 316 321 325 329 329 332 331 329 336 345 346 334 326 327 327 327 329 330 330 330 331 331 331 332 332 332 331 331 332 332 331 332 333 334 334 334 333 331 330 329 329 329 329 328 327 325 323 324 326 325 325 324 322 320 317 316 319 322 323 322 321 320 319 318 317 316 316 317 317 317 316 316 316 318 321 322 322 323 322 321 321
325 327 332 333 324 322 320 317 319 318 315 319 320 318 318 314 314 323 328 328 331 333 329 330 332 336 344 336 327 326 325 326 327 328 329 329 330 330 331 331 331 331 331 331 331 331 331 332 333 333 334 334 333 331 329 329 328 328 328 328 328 325 323 323 324 325 326 325 323 321 317 314 316 319 319 319 318 317 317 316 316 315 316 317 317 316 315 315 316 319 322 322 323 322 322 323 322
325 326 328 331 325 321 319 317 320 319 316 319 320 318 318 317 315 321 327 326 329 331 324 323 323 326 333 331 327 327 326 325 326 327 328 329 329 330 331 330 331 331 331 331 331 331 330 331 332 332 333 334 334 332 329 328 329 328 327 327 327 326 324 324 324 323 324 325 324 322 318 314 315 316 316 315 315 315 315 315 315 316 317 317 316 316 315 315 317 320 322 323 323 322 322 323 322
322 325 327 326 321 320 319 319 321 320 318 318 318 317 319 321 317 316 323 324 325 321 311 310 314 321 327 329 328 327 327 325 326 328 328 329 330 330 331 331 331 331 330 330 331 331 330 331 332 332 332 333 334 333 330 329 329 328 327 326 326 326 325 324 323 322 322 323 324 322 319 315 314 315 314 314 314 314 315 315 316 316 317 316 315 315 314 314 317 321 323 323 323 323 322 323 322
322 325 328 323 319 321 321 322 324 323 321 319 318 320 323 323 317 317 322 323 324 316 312 319 323 326 331 333 332 326 325 326 326 327 327 328 329 329 330 330 331 331 331 330 330 331 331 331 331 332 332 332 333 333 331 329 330 329 327 326 326 325 325 324 323 322 321 322 323 322 320 317 314 314 315 314 315 315 316 316 316 317 317 316 315 315 315 314 318 322 323 323 323 323 323 322 322
326 324 328 325 321 321 321 321 324 327 326 321 320 324 327 323 318 321 325 325 324 317 324 338 338 337 337 334 331 326 325 326 325 327 327 328 328 328 329 329 330 331 331 331 331 331 331 331 330 331 331 332 333 333 332 330 330 330 328 327 327 326 326 324 323 322 321 321 322 322 321 319 315 314 315 316 316 316 316 317 317 317 316 315 315 315 315 315 318 322 323 323 324 323 323 322 323
328 327 326 324 323 322 322 322 323 326 327 323 322 326 330 323 319 322 325 323 320 318 329 340 342 345 341 333 330 326 326 326 326 327 326 327 327 327 328 328 329 329 331 331 331 331 331 331 330 330 331 332 332 332 333 331 330 330 329 328 327 327 327 326 324 323 322 321 321 322 321 320 318 315 316 317 317 316 316 316 317 317 316 316 315 315 315 315 317 322 323 323 324 323 324 323 323
325 326 323 323 324 323 323 323 324 324 323 325 324 325 328 323 321 324 325 323 319 319 329 339 344 347 340 335 331 327 326 327 327 327 326 327 327 327 327 328 328 328 329 330 331 331 331 331 331 330 330 331 332 332 333 332 331 330 330 329 328 327 327 327 325 323 322 322 321 322 322 321 320 318 317 318 319 318 316 316 316 316 316 316 316 316 316 316 317 322 324 323 324 324 324 323 322
324 325 326 327 324 323 325 324 326 323 320 327 324 322 324 322 323 325 326 325 319 317 326 340 347 345 337 332 331 328 327 327 327 327 327 327 327 327 327 328 328 328 328 329 330 330 331 331 331 331 330 331 332 332 333 333 331 331 330 329 328 328 328 327 326 323 321 321 321 321 322 322 321 320 318 319 320 319 318 318 318 317 317 316 316 316 316 317 319 322 324 323 324 324 324 322 321
324 323 327 330 328 328 327 323 326 323 321 328 324 322 325 322 323 324 326 326 321 320 322 330 339 340 335 330 330 330 327 326 327 327 328 328 328 327 328 328 328 328 328 328 328 329 330 331 331 332 331 331 331 331 332 332 332 331 331 330 329 328 328 328 326 324 321 320 319 319 320 320 320 320 318 319 319 320 320 320 320 320 318 317 316 317 317 317 319 322 324 323 324 324 323 323 321
326 324 326 329 332 332 326 322 326 323 322 326 322 324 326 321 325 329 329 327 324 325 322 322 325 329 329 328 329 330 328 327 327 328 328 328 328 328 328 328 327 328 328 328 328 328 329 330 331 331 331 331 332 331 331 331 331 331 331 331 330 329 329 328 326 324 323 321 318 316 316 317 318 318 319 319 320 320 320 321 320 320 320 318 317 318 318 318 319 322 323 323 324 324 324 323 322
328 328 329 328 331 332 327 324 324 323 323 323 322 326 327 322 326 330 329 325 322 323 322 322 321 321 321 323 324 327 327 326 327 328 328 328 329 328 329 328 328 328 328 328 328 328 328 328 329 329 330 331 331 332 331 331 330 330 331 331 330 330 329 328 326 324 324 323 320 315 314 316 316 318 319 321 321 320 320 320 319 320 320 319 317 318 319 319 320 322 323 324 324 324 323 323 322
327 329 332 329 328 330 329 325 324 325 324 323 323 327 330 328 325 323 322 322 322 322 322 322 321 320 318 318 319 321 323 324 325 327 328 329 329 329 329 329 329 328 328 329 328 328 328 328 328 328 329 330 331 331 331 331 330 330 330 330 331 331 330 329 327 325 325 325 323 318 314 315 316 317 319 321 321 321 321 320 319 319 319 318 317 317 319 319 320 322 323 324 324 324 323 322 323
329 328 330 330 327 327 329 329 327 325 324 324 324 325 327 328 326 324 323 322 323 325 325 324 323 321 318 317 316 316 319 321 322 323 326 328 329 329 330 329 329 329 329 329 328 328 328 328 327 327 328 329 329 330 330 331 330 330 330 330 331 331 331 329 327 326 326 325 324 322 319 317 316 316 318 320 321 321 320 320 319 318 318 318 318 316 318 319 321 322 323 324 324 324 323 322 323
331 328 328 330 327 326 329 331 329 324 323 324 324 325 324 324 324 325 324 322 322 325 325 323 321 320 319 317 316 315 315 317 317 318 321 324 327 329 329 329 330 329 329 329 329 328 328 327 327 327 327 328 328 329 329 330 330 331 330 331 331 331 331 330 328 326 326 326 325 324 323 321 320 318 318 319 320 320 320 319 318 317 318 320 319 318 318 319 320 321 323 324 324 324 323 322 323
331 328 328 331 330 329 330 332 330 323 323 324 322 324 323 322 322 322 323 322 322 325 323 321 319 318 318 317 316 314 314 315 314 314 316 320 324 327 328 329 329 329 330 329 329 328 327 327 326 327 327 327 328 327 328 329 330 330 330 330 330 330 331 330 328 327 326 326 325 325 324 324 323 322 320 319 318 319 320 320 317 315 318 321 321 320 319 318 318 320 323 324 324 324 323 322 323
329 327 327 329 330 331 330 330 328 322 324 328 324 322 322 321 321 321 322 321 322 324 322 321 320 319 319 318 317 316 315 314 312 312 313 316 319 324 327 329 329 329 329 329 329 328 328 327 326 326 327 327 327 327 327 328 329 329 328 329 329 329 330 330 328 327 326 326 325 325 324 324 325 324 322 319 318 319 320 320 316 314 317 320 321 321 320 319 318 320 323 324 324 324 324 323 323
328 329 328 329 329 331 330 329 328 321 324 330 326 324 324 322 321 322 322 321 322 323 322 321 320 320 319 318 318 317 315 314 313 312 311 313 316 320 325 327 329 329 329 329 329 328 328 328 327 326 326 327 327 327 327 327 328 328 328 328 328 329 329 329 328 327 327 326 326 325 325 325 325 325 323 320 318 318 319 319 314 312 316 320 321 322 321 320 319 320 323 324 324 324 323 323 323
329 330 329 329 329 329 331 332 327 320 324 331 328 325 325 323 321 321 321 321 322 321 320 321 321 320 319 318 317 316 316 315 314 313 311 311 314 317 322 325 327 328 329 329 329 329 328 328 327 327 327 327 327 327 327 327 327 328 328 328 328 328 328 328 327 327 326 326 326 325 325 325 325 325 324 321 319 318 319 319 314 310 314 319 321 322 322 322 321 321 323 324 324 324 323 323 323
329 330 330 331 330 329 333 334 327 320 322 326 325 324 322 322 321 320 321 320 320 320 320 320 320 320 319 318 318 317 316 316 315 315 312 310 311 315 320 323 326 327 328 329 329 329 328 328 328 327 327 327 327 328 327 327 327 327 327 327 327 327 327 327 326 326 326 326 326 325 325 324 325 325 324 323 320 318 318 319 316 312 313 317 320 322 323 322 322 323 323 324 324 323 323 323 323
329 329 330 331 330 330 333 332 324 322 323 319 321 326 326 326 327 324 323 322 319 319 319 319 319 318 318 318 318 318 317 317 316 317 316 312 310 313 317 320 323 326 327 328 329 329 329 329 328 328 328 327 327 328 328 327 327 326 326 326 326 326 326 326 325 325 325 325 326 325 325 324 324 325 325 324 322 319 317 319 318 315 314 315 319 322 323 322 322 323 324 324 324 324 323 323 323
330 330 329 329 330 331 331 327 324 331 334 323 321 331 334 334 333 327 325 325 322 320 319 320 319 317 318 318 317 317 317 317 317 317 317 313 311 311 314 317 321 324 326 326 327 328 329 329 329 328 328 327 327 328 328 327 326 326 326 325 325 325 325 325 325 325 326 326 326 326 325 324 324 325 325 324 323 320 317 317 319 318 317 316 317 319 322 323 323 323 323 324 324 324 324 323 323
331 330 329 328 330 331 330 327 327 334 336 325 321 330 335 333 332 331 331 330 327 325 322 321 319 317 318 318 317 318 317 317 318 317 316 314 312 311 312 314 318 321 322 324 326 327 328 329 329 328 328 328 327 327 327 327 327 326 326 326 326 326 325 325 326 326 327 327 327 326 326 325 324 324 324 324 324 321 318 317 318 319 319 319 319 319 321 322 322 322 323 324 324 324 324 323 323
331 330 331 330 329 330 330 329 330 332 330 325 322 326 331 330 329 331 333 332 329 327 325 323 322 320 319 318 317 317 318 318 319 319 318 317 314 312 312 313 316 318 320 322 325 326 327 328 329 329 328 328 327 327 327 327 327 327 326 326 326 326 326 326 327 327 327 327 327 327 326 326 325 324 324 324 323 323 321 318 318 319 320 321 321 321 321 321 321 322 323 324 324 324 324 324 323
330 330 332 331 329 330 330 330 330 327 328 329 325 324 330 332 330 328 327 328 327 326 326 324 323 323 322 321 319 317 317 317 317 319 319 317 314 313 314 314 315 316 318 321 323 324 326 327 328 329 329 328 328 327 327 327 327 327 327 326 326 326 326 326 327 327 327 327 326 327 326 326 326 325 324 324 323 323 323 321 318 318 319 320 322 322 322 321 321 322 322 323 324 324 324 324 324
327 326 328 328 329 329 329 330 329 325 328 332 329 326 330 334 332 329 325 327 327 325 324 323 322 323 322 322 322 320 319 317 316 317 316 314 313 315 315 314 315 315 317 319 321 323 325 326 327 328 329 329 328 328 327 327 327 327 326 326 326 326 326 326 326 326 326 326 326 326 326 326 326 325 325 325 324 323 323 323 321 319 319 319 320 321 322 323 322 322 322 322 323 324 324 324 324
326 328 328 327 328 328 327 328 328 328 330 332 329 327 329 333 333 329 326 328 330 326 324 324 322 322 322 321 321 321 321 320 319 317 315 311 311 313 314 314 315 315 316 318 320 322 324 326 327 328 328 328 329 328 328 327 327 327 327 327 327 326 326 326 326 326 326 326 326 326 326 326 326 326 326 325 325 324 323 323 323 322 321 320 320 320 322 323 322 322 321 322 323 323 324 324 324
328 331 331 329 328 327 327 327 328 331 333 331 330 327 327 331 332 330 331 330 329 327 327 328 326 324 323 322 322 320 320 321 320 319 317 313 312 312 310 312 313 313 315 316 319 321 323 325 326 327 328 328 329 329 328 328 327 327 327 327 327 327 326 326 326 326 326 326 326 326 326 326 326 326 326 325 325 325 324 324 323 323 322 321 321 321 321 322 322 322 322 322 323 323 324 324 324
329 331 330 330 330 330 331 330 330 332 332 331 331 329 327 329 328 330 333 330 328 327 325 327 328 326 324 323 322 321 321 320 319 319 317 316 317 312 308 309 310 311 313 315 317 320 322 324 325 326 327 328 328 328 328 328 327 327 327 327 327 327 327 327 327 326 326 326 326 326 325 325 326 325 325 325 325 325 325 324 323 323 323 322 322 321 321 321 321 322 322 322 323 323 324 324 324
328 329 329 330 331 332 333 333 332 331 330 329 328 328 329 329 327 327 326 325 327 326 323 323 324 324 321 320 320 320 320 319 318 317 316 318 318 311 307 309 309 310 312 313 316 319 321 323 325 326 326 327 328 328 329 328 328 328 328 327 327 327 327 327 327 327 327 327 326 326 326 326 326 326 326 326 325 325 325 324 324 323 323 322 322 321 321 321 321 321 322 322 323 323 324 324 324
326 328 328 328 330 332 332 333 333 331 329 327 325 326 330 331 328 325 323 323 325 325 324 323 320 319 318 317 317 318 318 317 317 317 316 316 313 308 307 309 309 310 311 312 314 317 320 323 324 325 326 326 327 328 328 329 328 329 328 328 328 327 327 327 327 327 327 327 327 327 326 326 326 326 326 326 326 325 325 324 324 324 323 323 322 322 321 321 321 322 322 323 323 324 323 324 324
327 328 328 327 329 330 329 328 328 329 330 328 326 328 331 328 323 320 321 323 325 327 327 326 323 320 318 318 317 316 315 314 315 316 316 315 310 306 307 308 308 311 311 311 313 316 319 321 323 324 325 326 326 327 328 328 329 329 328 328 328 327 327 327 327 327 327 327 327 327 327 327 327 327 326 326 326 325 325 325 325 325 324 324 323 323 322 322 322 322 322 323 323 323 324 324 324
326 328 328 327 329 330 330 326 323 325 329 330 329 329 329 326 322 321 321 322 324 328 328 327 326 324 320 319 317 316 316 315 314 314 313 313 309 305 306 306 307 310 311 312 312 314 317 319 322 324 324 325 326 327 328 328 328 328 328 328 328 328 327 328 328 328 327 327 327 328 328 327 327 327 327 327 326 326 325 325 325 325 325 325 325 325 324 324 323 323 323 324 323 324 324 324 324
326 328 327 325 328 329 329 328 326 325 327 329 329 327 326 325 326 325 323 322 322 325 326 324 323 323 320 319 317 316 316 315 314 313 312 311 309 305 304 306 308 310 311 313 313 313 316 318 320 322 323 325 326 326 327 328 328 328 328 328 328 328 328 328 328 328 328 328 327 328 328 328 328 328 327 327 327 326 326 325 325 325 325 325 326 326 326 326 325 325 325 325 325 325 324 324 325
323 325 325 325 329 329 326 328 329 329 328 330 329 326 324 324 324 324 324 325 323 321 322 322 320 319 319 319 318 318 319 318 316 314 312 311 309 304 303 306 308 310 311 311 312 312 315 317 319 321 323 323 325 325 326 327 327 327 328 328 328 328 328 328 328 328 328 328 328 328 328 328 328 328 328 328 327 327 326 326 325 325 325 326 326 326 326 327 326 326 326 325 325 325 325 324 325
321 323 324 325 327 328 327 327 330 332 330 329 329 327 327 324 320 319 321 325 327 325 322 322 320 319 318 318 318 318 320 321 319 316 314 314 309 303 302 306 308 310 310 309 310 311 313 316 319 321 322 323 324 325 325 326 326 327 327 327 328 328 328 328 328 328 328 328 328 328 328 328 328 328 328 328 327 327 326 326 326 325 325 325 326 326 327 327 327 326 326 326 326 326 325 325 325
324 324 326 326 325 326 329 328 328 330 328 329 328 327 328 325 320 320 319 321 326 329 326 322 321 320 318 318 318 319 319 319 320 318 316 316 310 300 300 304 305 307 307 307 308 309 311 315 318 320 321 322 323 324 325 325 326 326 326 327 327 327 327 327 327 328 328 328 327 328 328 327 327 327 327 327 327 327 327 326 326 325 325 325 326 326 327 327 327 327 326 326 326 326 325 325 325
324 324 325 327 326 326 329 329 328 326 326 329 329 327 327 324 324 323 320 318 320 323 323 321 320 320 319 319 319 320 319 317 319 318 316 319 313 302 300 303 303 304 305 307 308 308 309 312 315 319 321 322 323 323 324 325 325 325 326 326 326 326 326 326 327 327 327 327 327 327 327 327 327 327 327 327 327 326 326 326 326 326 325 326 326 326 327 327 327 327 326 326 326 326 326 325 325
Wind_Speed
15 13 12 11 12 6 3 4 2 3 4 2 2 1 2 2 1 1 1 1 1 1 1 1 2 4 2 3 5 6 3 4 4 4 2 2 13 22 15 16 21 19 17 16 15 14 14 13 12 11 10 8 7 6 8 8 9 10 9 8 10 11 10 8 10 10 10 11 11 11 11 12 14 14 14 15 15 15 15 15 15 14 14 15 15 15 15 14 14 13 13 14 14 14 14 15 15
16 14 12 10 9 5 1 3 3 3 5 2 2 2 3 2 0 4 5 3 2 1 2 4 5 5 3 3 4 3 1 1 3 3 1 8 18 16 13 21 23 20 20 18 17 15 14 13 12 11 10 9 7 7 8 7 7 10 10 9 10 11 9 8 9 10 9 10 11 11 11 12 13 13 14 15 15 16 15 14 14 14 14 15 15 15 14 14 14 13 14 14 14 13 13 14 14
17 13 12 8 5 4 1 4 2 1 4 2 3 3 1 0 4 6 6 5 5 4 2 3 4 3 3 4 3 2 1 0 3 2 3 12 14 12 17 23 22 20 20 19 18 16 15 13 12 11 10 9 8 9 9 7 8 10 10 10 11 11 10 9 10 10 10 10 11 11 10 11 11 12 12 13 15 15 14 14 14 14 14 14 14 14 14 13 13 13 14 14 13 12 12 12 13
16 12 13 7 3 4 4 4 2 4 3 3 2 3 2 4 6 5 5 5 4 3 1 1 3 1 2 2 0 1 1 1 3 4 5 11 12 15 21 22 21 18 19 19 18 16 15 14 13 12 10 9 8 9 8 8 9 10 10 10 11 12 11 11 11 11 11 10 11 11 11 10 10 11 11 12 14 14 14 13 13 13 13 13 13 13 13 13 13 13 13 13 12 11 12 12 13
13 10 11 5 2 2 3 3 2 4 2 4 1 4 4 5 5 3 3 3 3 1 1 2 2 2 1 2 1 1 1 0 4 6 7 11 13 18 22 22 20 18 19 19 18 17 16 15 14 12 10 9 9 8 7 8 10 11 11 11 11 12 11 11 11 11 10 10 12 11 11 10 9 10 10 11 13 13 13 12 12 12 12 12 12 12 12 11 11 12 12 12 11 11 12 13 13
12 7 9 8 3 1 3 2 1 0 4 5 2 4 5 5 5 4 2 4 4 1 3 1 1 2 1 1 0 2 2 1 3 6 10 13 14 18 21 21 19 19 19 19 18 18 17 16 15 13 11 11 9 7 7 8 10 12 12 12 12 12 12 11 11 10 10 11 11 11 10 10 9 10 10 11 13 12 11 11 11 12 11 11 12 12 11 11 10 10 11 11 10 11 11 12 11
11 6 4 7 3 1 3 2 2 2 3 4 3 4 5 6 4 5 0 2 2 1 2 0 2 4 1 2 1 2 1 1 3 3 11 15 16 19 21 21 19 19 19 19 18 17 17 16 15 14 13 12 10 8 7 8 10 12 12 11 11 12 12 11 11 10 10 10 10 10 8 9 10 10 10 10 11 11 10 10 11 11 11 11 11 11 11 10 9 9 10 10 10 10 10 11 10
8 4 1 4 2 3 4 1 3 2 1 3 3 4 5 6 5 6 3 1 1 1 1 1 1 3 1 1 1 2 2 3 4 4 12 16 16 19 20 21 19 19 19 19 18 17 17 16 15 15 14 13 11 9 7 8 9 11 12 11 10 11 11 11 11 10 11 11 10 10 9 8 9 9 10 9 9 10 9 8 10 10 10 10 10 10 10 10 9 9 9 9 9 9 9 9 8
6 4 0 2 2 2 2 1 2 2 3 4 3 4 3 5 5 4 3 1 1 2 1 3 1 1 1 1 2 4 2 3 5 7 14 15 17 19 20 21 19 20 19 19 18 17 17 16 16 15 15 13 13 12 8 8 8 9 11 10 10 10 10 10 10 10 10 10 8 8 8 8 8 8 8 8 8 8 7 7 7 7 7 8 7 7 8 9 8 8 8 8 8 8 8 8 7
4 4 1 2 1 2 3 2 1 2 4 4 4 4 3 4 4 2 2 2 1 2 2 2 1 2 2 1 3 2 1 4 8 12 14 16 18 19 20 20 19 20 19 19 18 18 17 17 16 16 15 14 14 13 10 9 8 9 10 10 9 9 10 9 9 9 9 8 7 6 6 7 7 6 7 7 7 6 6 5 5 5 6 6 5 6 8 8 9 8 7 7 7 7 8 8 7
2 3 2 3 2 1 1 2 3 3 4 4 3 4 4 4 4 2 1 2 1 2 2 1 1 3 3 1 3 1 1 6 12 15 16 18 19 20 20 19 19 19 19 19 18 17 17 17 17 16 15 15 16 14 11 10 9 10 11 11 10 11 10 9 8 8 8 7 7 7 5 6 6 6 6 6 6 5 5 5 4 4 5 5 4 5 7 9 10 9 8 7 6 7 8 8 7
1 3 3 3 1 2 2 2 4 4 5 3 1 2 3 5 4 2 3 3 1 2 4 3 2 4 3 3 3 3 2 9 14 16 18 20 20 20 19 19 19 18 18 17 17 17 17 17 17 16 16 16 16 14 12 11 10 12 13 13 13 13 11 10 10 9 8 8 8 7 6 6 6 6 6 6 6 6 5 4 4 3 4 4 3 4 8 9 10 9 8 7 7 7 8 8 7
2 1 4 2 2 1 2 2 3 3 5 3 3 1 3 5 3 6 5 2 2 3 5 5 4 4 3 3 4 5 4 11 15 17 20 20 20 20 19 19 19 18 17 16 16 16 17 17 17 16 17 16 16 15 13 12 11 13 15 15 14 13 12 11 10 9 8 9 9 9 8 8 7 6 6 6 6 6 5 4 4 3 3 3 3 5 8 10 9 8 7 7 7 7 7 7 6
2 2 4 2 1 1 3 1 3 1 3 5 2 1 2 2 4 5 6 3 4 5 2 3 6 3 2 2 4 4 5 13 16 19 21 20 20 20 19 19 19 18 17 16 15 16 18 18 18 17 17 17 16 15 14 13 12 14 16 15 14 12 12 12 10 10 9 10 12 12 11 11 10 9 8 7 7 7 6 5 4 4 4 4 5 7 9 9 9 8 7 7 7 8 7 7 6
2 2 3 3 2 0 3 1 1 4 4 5 2 2 2 1 3 5 6 6 5 4 1 2 4 1 2 3 3 5 9 15 17 20 22 21 21 20 19 19 19 19 18 16 15 16 18 19 19 18 18 17 16 17 16 14 13 13 15 15 14 12 12 12 11 11 10 11 12 12 12 11 11 10 10 9 8 8 7 7 6 6 6 6 7 9 10 9 9 8 8 8 8 7 6 5 5
3 3 4 2 2 1 3 2 2 3 4 5 1 1 3 2 2 4 4 4 2 1 2 2 1 1 3 6 3 5 10 17 16 19 21 21 20 19 19 19 19 18 18 17 15 16 18 20 20 19 19 18 17 18 16 15 14 13 15 14 14 15 14 13 12 11 9 9 11 10 10 11 11 10 10 10 10 9 8 8 7 7 6 6 9 10 10 10 9 8 8 8 7 5 3 2 2
2 4 3 1 3 3 4 4 4 3 4 4 4 1 5 1 1 2 1 4 2 1 2 3 2 1 4 5 5 3 14 20 17 19 20 20 19 18 18 18 18 16 16 16 15 16 19 20 21 20 19 18 17 18 17 16 15 13 14 14 15 15 14 13 12 11 9 9 10 10 9 10 12 10 10 11 10 10 10 9 8 7 7 8 10 10 10 10 9 9 8 7 5 4 3 2 1
3 3 3 2 4 4 5 6 6 4 1 3 3 2 6 3 2 1 1 3 2 2 4 3 3 4 5 5 7 3 20 22 20 21 20 20 18 17 17 17 18 17 16 16 16 16 20 22 22 22 21 19 18 18 17 16 16 15 14 14 15 15 14 13 11 10 9 9 9 10 10 10 11 11 11 11 10 11 11 11 9 8 8 10 11 11 11 10 10 9 8 6 4 3 3 3 2
3 3 3 4 5 3 4 6 6 4 1 3 2 1 3 4 4 2 1 2 2 1 5 4 5 6 4 3 3 12 22 22 22 22 21 21 20 20 18 17 17 17 18 17 17 17 21 23 23 23 22 21 20 19 18 17 17 16 15 15 15 15 14 13 12 11 10 9 9 9 10 10 11 12 11 11 11 11 11 12 11 9 9 10 11 11 10 9 9 8 7 6 3 2 2 2 2
2 4 2 6 5 3 3 4 6 5 5 5 2 1 2 2 3 1 3 2 0 4 6 3 5 8 5 1 7 16 19 21 22 21 21 22 22 23 21 19 19 19 20 19 18 18 21 24 24 24 23 22 21 20 19 18 18 17 17 16 15 15 15 14 13 12 11 10 9 9 10 11 12 13 12 12 12 12 11 12 11 10 11 12 11 11 10 9 9 8 8 6 4 3 3 3 2
2 3 4 5 4 2 4 5 5 5 5 6 4 3 2 3 2 2 5 4 3 6 7 8 9 9 6 4 8 15 17 19 20 20 21 22 23 24 23 23 23 22 21 20 20 20 22 25 26 25 23 23 22 22 21 20 19 19 18 17 17 16 15 16 15 13 12 12 11 10 10 12 13 13 14 14 13 12 12 12 12 12 13 13 12 11 10 10 9 8 8 6 5 4 3 3 2
2 2 4 4 4 2 3 4 4 4 3 4 6 5 3 2 1 3 8 6 5 7 7 9 10 8 7 7 11 13 14 16 18 20 21 22 23 24 24 24 23 21 20 20 21 21 22 25 27 25 24 24 23 23 22 21 20 20 19 19 18 17 16 16 16 16 15 14 13 11 12 13 14 14 14 13 13 13 12 13 13 14 15 14 13 12 11 10 9 9 8 7 6 4 3 2 1
2 3 2 3 3 2 2 2 3 4 4 4 5 3 2 3 2 3 7 8 8 6 4 5 8 7 7 8 12 12 12 14 18 22 24 24 25 26 26 25 25 23 22 22 22 22 23 25 27 26 24 25 24 23 23 22 21 21 20 20 19 19 18 17 17 17 17 16 15 14 14 14 15 14 14 13 13 14 13 14 15 15 15 14 13 12 11 11 10 9 8 8 6 4 3 3 3
2 3 3 2 3 4 2 2 3 4 5 5 3 2 3 5 3 2 5 10 10 6 2 3 6 7 8 8 11 12 14 17 21 25 26 26 28 28 28 27 27 25 23 24 24 24 24 25 27 27 26 26 26 25 24 24 22 22 21 21 21 20 19 19 19 18 18 18 17 16 15 16 16 16 15 14 13 14 15 15 16 16 16 14 13 12 11 11 11 10 9 8 7 5 4 4 3
3 5 2 0 2 3 3 2 3 2 3 1 3 2 4 6 3 2 6 11 9 5 1 1 3 6 7 8 9 11 12 16 20 22 23 25 25 25 25 25 25 25 25 26 25 25 25 26 26 28 28 27 27 26 26 25 24 23 23 23 22 21 21 20 20 20 20 20 19 19 17 17 18 18 17 15 14 14 15 16 17 17 16 15 14 13 11 11 11 10 10 9 7 6 5 5 5
5 6 3 1 2 3 1 1 1 1 1 1 2 3 5 2 1 2 8 10 6 2 3 3 5 6 7 7 8 10 10 14 19 20 22 23 21 22 24 25 25 27 28 28 27 27 27 26 26 28 28 28 28 28 27 27 26 25 25 24 23 22 22 21 21 22 22 22 22 21 20 19 19 20 18 17 16 16 16 17 17 17 16 16 15 13 12 11 12 11 10 9 8 7 6 6 6
3 6 3 2 2 3 2 1 2 2 1 3 3 6 5 2 1 3 7 7 2 3 1 1 5 6 8 7 8 11 11 16 21 19 18 19 21 24 25 26 28 29 28 29 30 29 28 27 27 28 28 29 29 29 29 29 28 28 26 25 25 23 22 22 23 23 23 24 24 23 22 21 20 20 20 19 18 18 17 18 18 18 17 17 16 14 12 11 12 12 10 9 9 9 8 8 8
3 5 2 2 3 4 1 1 3 1 1 4 5 4 5 2 2 5 6 3 2 4 3 2 5 6 8 8 8 9 12 18 19 16 17 21 25 28 28 30 31 30 29 31 31 29 29 29 29 28 29 29 30 31 30 30 30 29 28 27 26 25 23 23 24 24 24 25 25 24 24 22 21 21 21 20 20 19 19 18 18 18 18 17 16 15 13 12 12 12 11 10 9 9 8 9 9
3 4 1 4 5 4 4 2 2 2 2 4 4 3 6 6 6 7 7 4 3 3 5 4 6 7 6 7 7 7 12 16 14 17 24 27 28 28 31 33 32 31 32 31 29 29 31 31 31 30 29 30 31 31 31 31 31 30 29 28 28 26 24 25 25 24 24 25 26 26 25 24 23 22 22 21 20 21 20 19 19 18 18 18 17 16 14 13 13 13 12 10 9 9 9 9 8
2 2 1 2 3 4 6 3 2 3 3 4 3 3 7 10 8 6 7 6 3 4 6 6 6 6 6 6 6 7 11 13 15 23 30 29 27 27 30 32 31 32 32 30 30 30 31 32 32 31 31 32 31 31 31 31 31 31 31 30 29 27 26 26 25 24 24 24 25 26 26 26 25 24 23 23 21 21 21 20 20 19 18 18 18 17 15 14 14 15 13 12 10 10 11 10 10
1 1 1 2 2 4 4 2 5 5 3 3 4 3 9 10 7 7 7 6 6 7 8 8 7 7 6 6 6 7 9 14 20 26 28 27 27 27 30 31 30 32 31 30 32 31 31 32 33 33 32 33 33 33 32 32 32 32 32 31 30 29 27 27 26 26 24 24 24 26 26 26 26 26 25 24 23 22 22 22 21 20 18 18 19 18 17 16 16 16 15 14 13 13 13 13 13
1 2 1 2 4 3 5 1 7 7 2 2 5 3 9 10 7 7 6 5 6 8 8 7 7 7 7 6 7 7 8 14 20 24 27 27 28 29 31 31 30 31 32 32 32 31 31 32 33 34 34 34 34 34 34 33 32 32 32 31 31 30 29 29 28 27 26 24 24 25 26 26 27 27 26 25 24 24 23 23 21 20 18 18 20 20 19 18 17 17 16 15 15 15 15 15 15
1 3 3 2 4 2 3 2 5 7 2 2 6 5 7 7 4 4 1 4 5 6 8 8 8 8 7 7 6 7 8 10 14 20 28 29 30 32 33 33 32 32 33 33 32 32 32 32 33 34 35 35 35 35 35 34 34 33 33 32 32 31 30 30 29 28 27 26 25 25 26 26 27 27 26 26 25 25 24 23 22 20 20 20 20 21 21 19 18 18 17 16 16 16 15 15 14
2 1 2 2 3 3 2 3 4 5 4 5 7 7 12 9 4 4 2 4 5 5 8 8 8 8 7 7 6 7 8 8 10 17 28 31 32 33 33 34 33 32 32 33 33 33 33 33 33 34 35 35 35 36 36 35 35 34 34 33 33 33 32 31 30 29 29 28 27 26 25 26 26 26 26 26 26 25 25 25 24 22 21 20 20 22 21 20 19 19 19 18 17 18 17 16 15
4 2 2 1 2 4 5 4 3 5 4 6 5 6 15 14 8 8 6 2 3 6 8 7 8 7 6 7 7 8 9 9 12 20 28 30 30 32 32 33 31 31 32 32 33 33 33 33 33 34 34 35 35 35 36 35 35 35 34 34 34 34 33 32 32 31 30 30 30 29 27 27 27 26 26 26 26 26 26 26 25 23 22 21 20 21 21 22 21 22 22 20 20 20 19 18 16
7 5 4 4 3 4 5 5 4 5 5 6 8 7 13 17 11 9 9 4 5 9 9 9 8 7 7 7 8 9 10 11 16 24 27 24 25 29 30 31 30 31 32 32 32 33 34 34 34 35 35 35 35 34 35 35 34 34 34 33 34 35 35 34 34 33 32 32 32 31 30 29 28 28 27 26 27 27 27 26 25 24 24 22 21 22 23 23 23 24 23 22 21 21 21 19 17
7 7 5 6 6 4 4 4 4 2 3 5 8 8 12 17 12 8 7 4 5 10 12 13 11 9 9 10 12 13 12 12 17 23 24 20 22 26 27 28 28 29 30 31 32 34 36 35 35 36 36 35 35 35 35 35 35 34 33 33 34 35 35 35 36 35 35 34 33 33 33 32 31 30 28 28 27 27 27 27 26 26 26 25 24 24 24 23 24 24 24 23 23 23 22 20 18
5 5 5 5 6 5 5 5 3 2 2 4 5 6 11 16 14 9 6 4 7 12 14 14 14 11 9 11 15 14 11 10 12 17 20 19 20 23 25 27 28 28 31 33 34 35 36 36 37 37 37 37 37 37 37 37 37 36 35 35 36 36 36 37 37 37 37 36 35 35 35 34 33 32 30 29 29 28 28 28 28 28 28 27 26 26 24 24 24 25 25 24 23 23 23 20 18
2 3 4 4 3 2 4 4 2 1 3 3 4 5 9 13 14 10 7 7 9 13 15 14 13 12 11 12 13 12 11 10 10 13 16 17 19 22 24 26 28 31 33 34 35 35 36 37 39 38 37 38 39 39 39 39 39 38 37 36 35 36 36 37 38 37 36 36 37 36 36 35 34 33 32 31 31 31 30 29 29 29 30 29 28 27 26 26 25 26 27 26 24 23 22 20 19
3 2 3 3 2 2 4 4 2 2 2 1 2 5 7 9 13 12 10 10 11 14 15 12 10 12 15 14 12 12 12 12 11 12 13 14 16 19 22 25 29 31 33 32 33 34 36 38 40 39 39 40 40 41 41 41 39 38 37 36 34 33 34 34 35 36 36 36 37 37 37 36 35 35 33 33 33 32 32 31 29 30 31 30 30 29 29 28 28 28 28 28 26 23 22 21 20
4 4 5 4 3 6 5 2 2 2 2 1 2 7 8 7 11 13 9 8 10 12 12 11 11 13 14 13 12 13 12 11 12 13 12 10 14 19 23 26 28 31 33 33 34 36 38 40 41 41 40 40 41 41 42 40 38 35 34 32 30 29 30 30 30 33 35 36 37 37 38 37 36 36 35 34 34 34 33 32 31 31 31 32 32 31 31 30 29 29 30 29 28 26 24 22 20
6 6 8 6 5 7 6 1 2 3 4 2 1 4 7 4 8 12 6 4 8 8 8 11 12 12 11 12 14 13 11 11 12 14 12 9 14 20 23 26 28 30 34 36 37 39 40 41 41 40 40 41 42 41 41 40 38 37 34 32 30 29 28 30 32 33 34 36 37 37 37 37 37 36 36 35 34 35 35 35 33 33 33 33 33 33 33 32 32 31 31 31 30 30 27 23 22
6 5 7 6 6 6 5 3 1 1 4 3 1 3 7 4 5 8 6 6 8 8 8 10 11 11 10 11 12 10 10 12 11 12 12 11 15 18 20 26 29 32 37 37 37 39 41 40 39 40 41 41 42 41 40 40 40 39 38 38 37 34 33 34 36 36 36 36 36 36 37 37 37 37 37 36 36 36 36 37 36 35 35 34 34 35 35 34 34 33 32 32 32 31 30 26 26
4 4 8 8 6 6 4 3 2 2 3 3 1 2 5 8 6 7 8 10 11 10 11 12 12 13 11 11 12 11 12 12 10 11 12 13 17 19 22 27 31 35 37 35 36 39 40 40 40 40 41 42 41 40 40 41 42 41 40 40 39 39 38 37 36 35 36 36 35 35 36 36 37 37 37 37 37 37 37 37 37 37 37 36 36 36 37 36 36 35 34 33 33 33 32 31 29
3 4 7 7 6 5 4 4 2 1 2 3 3 1 3 9 6 4 6 11 12 11 13 14 14 14 13 11 13 12 12 11 10 11 12 12 16 21 26 29 31 34 35 35 38 40 40 41 41 40 40 41 40 40 40 42 43 42 41 40 39 39 40 37 34 34 35 35 34 35 34 35 36 36 37 37 37 37 37 38 38 38 39 38 38 38 38 38 37 37 36 35 35 35 34 33 31
3 4 5 4 4 4 4 4 3 2 0 7 7 5 4 10 6 3 3 7 10 9 10 12 13 14 13 11 12 12 10 9 10 11 11 13 17 22 25 27 30 32 34 35 37 38 39 39 39 40 40 41 40 41 41 42 43 42 41 40 40 39 37 35 33 32 32 32 33 34 34 34 35 35 36 36 36 37 37 38 39 40 40 39 40 40 40 39 38 38 37 36 36 35 35 34 33
3 4 6 5 4 4 3 2 3 2 4 11 12 10 7 9 4 4 4 4 7 8 7 9 12 14 13 11 11 11 8 7 8 9 10 14 19 22 22 24 29 31 31 32 34 35 36 36 36 39 41 40 40 41 42 43 43 43 43 42 42 40 37 33 33 33 32 32 33 34 34 34 34 35 36 35 36 36 36 38 39 40 40 40 41 41 41 40 39 38 37 36 36 35 35 34 34
5 4 4 2 1 1 2 2 2 3 6 10 10 10 10 9 5 3 4 5 4 6 7 9 12 13 12 10 10 9 7 7 7 7 8 10 14 17 18 22 27 28 28 30 33 34 34 35 35 36 39 39 38 38 41 42 42 43 44 44 43 41 38 35 35 35 34 34 34 34 33 33 34 35 35 35 36 36 36 37 38 39 40 40 41 41 41 40 38 37 36 36 36 36 35 34 34
4 4 5 3 2 2 3 3 3 4 7 8 4 7 8 10 12 10 9 8 7 8 9 10 12 13 12 10 8 7 6 7 7 7 8 7 8 10 13 19 23 25 27 30 32 33 33 34 35 36 38 39 37 37 38 41 42 43 45 44 44 42 39 38 38 37 36 35 35 34 33 34 34 35 35 36 37 36 36 36 37 38 39 40 40 40 40 39 38 37 37 37 37 36 36 35 35
8 7 7 6 4 3 4 4 2 3 8 8 3 6 2 7 11 13 14 13 13 12 10 11 12 13 13 10 8 8 8 8 8 7 8 8 8 10 13 17 20 23 27 29 31 32 32 33 34 36 38 38 37 38 39 40 42 44 45 44 44 42 40 39 39 39 38 36 35 35 35 35 36 36 37 37 36 35 35 35 36 37 37 38 38 38 38 38 37 37 37 37 37 37 36 35 36
10 7 6 6 5 4 4 3 3 5 6 5 2 5 4 5 4 6 9 9 10 10 7 9 11 11 11 11 9 10 11 10 9 8 9 9 10 13 15 17 19 22 26 28 29 31 31 32 34 36 38 37 36 37 39 40 43 44 44 44 44 42 40 40 40 41 39 37 36 35 35 36 36 37 36 35 34 33 33 33 33 34 35 36 36 37 37 37 37 36 37 37 37 37 35 35 36
6 4 5 7 6 4 1 1 2 4 3 3 2 3 5 5 6 8 8 7 7 8 7 8 12 13 11 10 11 11 10 10 9 9 10 11 12 16 18 19 21 22 24 26 29 30 31 33 34 36 38 37 36 38 40 42 43 43 43 43 43 41 40 40 40 41 40 38 37 37 37 37 36 36 35 33 33 31 31 31 31 32 32 33 35 36 36 36 36 36 36 36 37 36 35 35 36
4 5 7 7 4 6 2 2 1 1 2 4 3 4 5 5 11 13 11 11 10 9 10 10 12 15 12 10 12 11 9 10 9 9 10 10 10 15 19 21 22 22 23 26 29 31 33 34 34 35 37 35 35 38 40 41 40 40 40 41 41 40 40 41 42 42 40 38 37 37 37 37 36 36 35 33 32 31 30 30 30 30 30 31 33 34 35 36 36 36 36 36 36 36 35 36 37
4 6 7 3 4 3 2 2 1 0 4 3 3 9 8 4 8 7 5 12 13 11 13 14 13 13 11 10 11 10 9 10 9 8 10 9 9 13 17 21 23 24 24 26 29 30 30 32 33 34 35 35 36 37 39 40 40 39 40 40 41 41 42 43 43 43 40 37 37 38 37 37 37 36 34 32 30 30 29 29 29 29 29 30 31 32 33 34 35 35 36 37 36 36 35 36 37
2 3 5 5 1 2 3 3 3 2 4 3 4 9 8 7 10 8 5 9 10 12 14 15 14 13 12 12 12 10 10 10 9 8 9 8 9 12 16 20 24 24 25 26 26 24 26 29 31 33 35 36 35 36 37 39 39 39 39 40 40 41 41 42 42 41 38 36 38 38 38 38 37 34 33 32 30 30 29 29 29 29 29 30 31 31 32 33 34 34 35 35 35 35 35 35 36
2 2 2 3 3 4 4 5 3 3 5 4 5 6 5 7 12 13 12 9 8 11 12 13 16 16 14 13 11 9 9 8 8 8 8 8 9 13 18 21 23 23 23 23 23 22 25 27 29 32 33 33 32 34 36 37 37 38 38 38 39 39 40 41 41 39 37 37 39 38 38 38 36 33 33 32 31 31 30 29 29 30 30 31 31 32 32 32 33 34 34 34 34 34 35 35 36
6 4 4 4 3 1 1 3 2 2 4 4 5 7 7 6 5 8 12 10 11 13 12 13 15 15 14 12 9 8 8 8 9 8 8 9 9 13 17 19 20 19 19 19 20 22 24 25 27 30 31 31 31 33 34 36 37 37 38 38 39 39 40 40 39 37 36 38 38 38 37 36 34 33 33 32 31 31 31 30 30 31 31 31 32 33 33 33 33 34 34 34 34 34 35 35 36
10 9 8 10 8 4 2 4 2 2 3 4 3 8 11 7 4 7 11 10 11 14 14 13 13 14 14 11 8 8 8 9 10 9 9 8 8 11 14 15 16 17 18 18 19 21 23 25 27 28 29 31 32 33 34 35 35 36 37 38 38 38 38 37 37 36 36 37 37 37 36 34 33 33 33 32 32 32 31 31 31 31 32 32 33 33 33 33 34 34 34 34 34 34 35 35 35
Wind_Direction
348 347 341 332 337 340 354 51 75 323 72 83 315 113 238 226 204 203 214 283 302 284 259 92 101 106 114 150 165 171 150 161 165 134 204 211 151 161 168 171 169 165 162 157 156 154 153 154 149 145 141 141 132 115 105 104 102 103 105 124 129 110 100 94 91 89 87 92 94 98 104 102 97 99 104 102 99 96 94 91 89 87 87 86 87 89 90 90 89 86 83 80 79 82 82 81 81
351 350 346 334 343 5 294 68 92 333 56 89 262 162 249 307 309 207 198 214 205 190 91 95 94 84 59 84 115 117 94 211 160 137 157 136 145 162 167 165 166 164 162 158 158 157 157 156 152 149 144 144 134 121 112 111 109 107 110 114 124 119 113 108 101 101 99 102 107 106 106 105 98 99 103 101 100 99 96 94 92 88 90 90 90 92 93 92 90 87 85 83 83 84 86 87 86
352 352 353 342 351 42 60 42 88 65 79 150 262 237 247 166 224 222 211 219 192 148 94 81 76 70 38 37 55 87 126 301 135 113 124 144 152 165 166 166 165 163 161 159 159 159 160 157 154 150 148 146 132 125 121 120 114 111 116 114 119 122 122 121 114 113 112 111 114 114 112 108 104 105 105 104 103 99 95 93 91 88 89 91 93 94 94 93 90 89 86 85 86 85 90 93 89
355 353 355 353 11 35 57 42 120 117 112 190 264 259 220 187 215 238 237 233 197 121 37 51 43 340 60 75 63 82 219 300 148 144 149 163 166 160 164 168 164 161 160 159 160 159 160 159 155 152 153 149 133 131 128 125 125 122 119 117 123 125 125 122 116 116 115 113 111 114 118 114 113 113 109 109 105 99 98 96 94 93 92 93 96 96 97 98 96 91 89 87 86 91 97 94 90
356 356 3 27 87 27 88 76 102 100 174 186 150 260 241 203 195 220 254 279 266 272 220 103 62 288 34 121 168 143 207 309 153 160 166 173 168 159 163 167 162 160 161 161 161 161 162 161 156 156 157 147 139 137 131 128 133 133 128 126 125 124 125 121 119 120 118 115 112 114 118 114 113 115 112 111 107 103 100 94 93 96 95 96 98 98 98 100 98 93 91 89 89 99 100 92 87
359 355 16 51 97 102 104 84 79 48 225 175 126 260 232 201 185 185 272 321 306 251 182 135 147 183 24 309 224 176 192 78 158 179 175 170 166 162 164 167 164 162 163 162 163 163 163 162 160 160 159 150 146 139 130 130 139 138 131 129 129 129 128 126 125 122 119 117 115 114 117 114 109 113 115 112 111 109 98 87 91 97 97 97 99 98 97 97 95 96 95 90 94 104 101 92 85
6 355 17 54 58 40 89 124 201 243 231 172 164 241 209 194 179 146 207 332 340 2 133 211 148 122 63 303 295 203 287 217 173 188 178 168 165 165 166 167 165 164 164 164 165 166 165 165 164 162 159 156 150 144 137 138 145 140 132 130 132 132 132 135 131 125 124 122 121 119 118 117 114 116 113 109 112 112 102 92 95 101 100 98 98 98 98 98 100 104 99 94 98 102 102 97 90
17 19 29 74 34 32 84 118 236 220 208 217 215 227 202 183 156 139 183 192 178 301 78 274 42 93 248 351 196 246 335 214 193 187 178 169 166 166 169 170 166 166 166 166 166 168 168 167 166 163 161 159 153 153 152 149 152 144 140 140 137 136 139 142 136 134 133 130 129 122 118 121 125 123 116 114 114 112 106 98 99 101 101 97 98 103 104 102 106 109 102 100 102 100 99 98 92
28 37 99 84 50 30 52 354 278 245 259 270 259 236 201 161 134 130 187 208 188 208 218 252 320 66 235 72 256 276 351 209 195 179 177 175 171 168 174 177 173 169 167 168 168 170 170 170 169 165 164 164 160 160 159 155 155 152 151 149 144 144 145 146 145 143 137 138 138 122 115 126 135 128 121 121 117 115 110 106 105 102 102 104 110 116 112 106 107 112 110 110 107 99 95 94 96
35 27 100 78 68 29 358 314 299 267 262 271 267 236 186 144 126 101 160 179 164 157 242 262 74 78 133 145 264 300 356 194 176 173 178 179 173 171 177 182 181 175 170 170 171 173 172 173 172 169 168 167 165 162 162 160 158 161 159 152 151 154 152 153 155 152 147 146 146 139 127 128 138 133 126 124 120 122 122 120 111 102 107 117 131 125 115 111 111 114 119 121 112 102 100 102 104
44 2 91 74 52 68 253 252 293 272 276 301 284 238 192 134 113 91 135 184 165 133 233 272 114 135 96 307 259 279 258 187 177 175 176 175 173 174 179 183 185 181 176 175 175 176 174 175 176 172 169 168 168 168 168 163 160 162 158 154 161 165 164 163 163 167 163 146 137 146 134 116 129 139 140 137 133 134 137 136 121 114 115 118 131 125 120 117 115 117 121 123 120 112 109 111 109
94 346 68 87 174 210 199 205 287 283 309 322 205 256 173 122 112 181 183 184 156 150 223 216 174 132 91 304 261 297 258 190 185 179 175 173 174 177 181 184 186 186 183 179 178 179 177 179 180 175 171 173 174 177 173 163 160 160 159 165 173 174 174 171 166 170 164 141 133 143 135 127 138 143 152 157 149 142 142 141 131 137 141 134 133 134 128 121 118 119 120 119 120 118 112 112 110
125 114 94 123 183 160 155 173 292 311 325 277 194 310 133 131 184 199 170 143 120 156 241 219 161 101 117 255 281 310 257 197 186 178 177 175 178 180 184 187 187 190 188 183 180 182 182 182 185 179 175 178 179 181 174 164 162 160 164 174 180 179 177 173 164 160 157 148 150 159 162 168 170 158 158 162 160 153 149 148 141 148 165 165 154 142 133 126 125 122 120 120 116 113 111 112 111
134 150 116 141 76 109 151 152 298 174 267 259 209 295 154 174 202 172 141 147 200 185 254 201 153 106 160 254 308 296 225 197 186 181 181 180 183 184 186 189 190 192 191 189 187 186 186 187 190 184 181 182 181 181 175 170 166 161 167 177 184 184 173 167 164 162 167 169 171 176 180 184 181 174 173 171 170 166 164 169 164 157 167 173 157 144 138 133 130 126 124 124 121 117 115 114 112
135 141 92 116 69 357 172 147 203 154 237 236 161 157 157 247 153 141 155 167 228 216 119 138 153 181 186 167 248 255 205 189 185 183 182 183 187 189 191 191 192 194 193 195 194 192 191 191 193 189 188 185 181 182 179 177 174 168 171 178 184 183 173 169 172 176 182 186 186 188 191 193 190 185 185 186 182 178 180 187 187 178 179 174 155 144 143 141 137 132 130 127 127 128 128 125 116
115 111 62 110 142 241 198 163 134 130 249 226 250 148 142 273 133 146 200 162 225 274 93 183 174 189 176 170 234 274 193 179 179 182 183 184 187 191 195 193 194 196 196 198 198 197 195 194 195 193 193 189 185 184 183 183 182 179 178 182 184 182 180 183 184 187 195 199 198 199 202 203 202 200 196 198 197 195 198 201 205 205 199 175 154 150 150 149 145 139 135 134 133 133 131 139 134
74 88 74 138 172 207 193 176 171 160 255 255 294 234 143 266 277 181 230 106 146 322 347 237 218 203 192 206 302 309 175 173 173 175 179 182 185 188 193 195 195 197 198 201 200 199 198 198 197 197 197 194 190 188 188 188 188 188 186 187 188 187 188 193 193 195 203 207 209 211 212 211 211 213 207 206 207 210 213 212 217 221 208 176 160 158 158 156 154 150 148 147 141 128 105 93 105
63 91 121 200 195 201 183 179 190 166 245 243 253 204 143 165 220 178 67 58 67 330 309 299 298 260 229 265 307 176 166 170 171 170 172 177 183 186 190 196 197 200 202 202 202 200 201 201 200 199 198 198 196 193 193 192 193 193 193 191 190 192 194 199 201 202 207 208 210 215 216 214 213 214 212 211 213 218 222 224 228 226 205 181 170 166 164 165 165 165 166 166 153 124 96 87 83
98 115 149 220 203 214 199 174 183 167 155 203 239 234 163 177 174 144 202 278 34 199 277 326 324 278 265 298 223 166 163 168 172 171 172 176 183 187 191 197 199 205 205 204 203 201 203 204 204 202 199 200 199 198 198 197 197 197 196 194 192 195 199 201 205 207 206 205 206 210 213 213 213 213 213 216 220 224 226 228 231 222 202 186 179 175 173 174 177 181 182 181 172 128 89 97 91
147 131 182 234 207 239 249 187 190 186 151 157 203 198 185 213 172 160 184 195 213 208 236 252 269 257 250 260 167 165 165 169 175 176 178 183 188 190 192 197 200 205 206 205 204 202 204 204 206 206 201 201 202 201 202 200 200 201 200 199 196 197 200 200 205 210 204 202 201 202 210 212 216 217 217 222 225 226 224 223 221 212 200 191 185 183 184 186 187 192 192 191 180 141 102 97 84
159 149 193 226 186 217 241 202 196 191 159 154 155 128 170 230 181 159 147 146 263 243 230 213 225 230 205 193 177 172 171 174 181 185 186 189 193 196 199 201 203 206 206 205 205 204 205 205 208 210 205 203 206 204 204 203 203 204 205 204 202 202 202 199 202 209 207 206 202 199 207 211 216 220 221 225 225 223 220 216 211 204 198 193 190 190 193 195 194 193 192 188 177 165 137 100 55
161 216 204 198 157 193 244 198 168 151 131 127 134 146 171 164 159 157 151 171 236 231 223 217 225 218 184 177 178 178 180 183 189 195 197 196 198 201 204 206 206 208 206 205 207 206 206 206 208 212 208 205 209 209 207 207 205 206 207 208 208 206 206 203 202 205 207 209 205 202 204 206 210 216 219 220 220 219 217 213 207 201 198 196 195 198 200 202 200 196 193 186 185 190 188 176 3
189 264 258 226 178 187 260 171 162 135 124 151 164 177 125 110 234 185 165 206 227 218 209 221 238 220 187 168 169 179 189 193 197 201 202 202 204 205 206 208 209 209 208 208 210 208 207 207 210 213 211 207 211 212 211 211 210 209 209 210 212 211 210 208 207 207 208 209 210 208 203 203 205 208 212 213 215 217 216 211 206 201 199 200 201 205 207 207 205 202 198 194 201 211 214 230 269
170 252 279 256 191 200 249 132 148 151 162 200 178 110 129 164 206 154 189 235 241 247 255 237 238 195 173 167 174 189 194 198 205 207 207 207 209 210 210 211 213 213 211 211 212 210 209 209 211 214 213 211 213 213 213 214 214 213 212 212 214 216 215 215 214 214 212 212 213 211 205 205 205 206 207 208 211 213 212 208 205 204 203 205 208 211 214 214 211 208 205 205 217 230 240 250 274
201 230 251 199 210 236 275 114 124 158 196 200 110 138 225 199 175 144 226 248 250 256 313 140 158 150 172 188 192 197 198 205 212 214 214 215 215 215 215 215 216 215 215 216 215 214 213 213 213 214 215 214 215 216 215 216 217 217 215 215 216 219 220 221 220 219 217 215 214 212 208 207 207 207 206 205 207 208 209 207 207 208 208 210 213 217 220 220 217 211 211 217 227 238 248 264 281
211 197 196 181 281 302 331 169 133 19 268 101 116 254 276 244 216 250 243 248 241 188 78 105 133 150 195 203 204 204 203 210 213 216 218 219 219 219 219 218 218 218 220 222 221 220 218 216 216 216 217 216 217 219 218 218 218 219 219 219 220 221 223 224 223 223 221 219 217 215 212 211 211 210 208 207 208 207 209 211 212 212 213 216 219 222 226 227 221 216 219 227 238 247 253 267 279
181 162 163 181 289 326 52 198 263 354 284 178 175 253 284 330 281 254 256 258 222 151 92 127 158 183 209 210 216 213 214 217 214 214 217 218 219 221 221 219 220 222 222 224 225 226 222 218 219 219 219 218 219 220 221 221 220 222 222 222 223 225 226 226 226 226 224 222 221 219 217 216 216 214 212 212 212 210 211 216 217 219 220 222 225 227 230 233 226 221 227 236 248 254 258 265 275
127 139 146 278 321 320 319 224 262 303 238 174 154 263 286 319 247 220 253 277 132 184 223 214 200 214 217 215 220 215 224 227 219 214 216 217 218 219 220 220 221 221 222 225 226 227 225 221 221 221 220 220 220 221 223 224 224 225 225 225 226 228 229 229 229 228 226 225 224 223 223 222 222 220 217 216 217 215 215 218 221 225 227 229 232 233 235 235 227 223 229 241 250 248 251 262 272
132 133 177 291 351 317 249 219 251 179 195 172 137 301 274 244 232 212 233 243 133 195 233 230 228 234 230 223 227 221 230 232 221 220 224 223 222 220 222 223 221 221 223 225 226 227 227 225 223 223 222 221 222 223 224 226 227 227 228 228 228 230 231 232 232 231 230 228 227 227 227 228 228 226 223 222 222 221 220 222 225 229 232 234 237 238 237 234 227 224 230 239 243 242 247 256 262
168 124 155 272 1 300 239 179 126 160 192 176 157 278 256 242 245 224 231 235 202 241 247 241 241 245 245 233 230 231 232 228 220 225 229 229 228 226 228 229 224 224 225 224 225 226 228 227 225 225 223 223 224 225 225 227 229 230 230 230 230 232 234 235 235 235 233 231 230 230 229 230 231 230 229 227 226 226 225 227 230 232 234 238 239 241 239 234 228 226 230 237 237 244 250 254 254
144 123 147 191 214 272 269 184 146 168 216 155 152 250 261 258 261 243 238 221 209 236 246 243 245 247 251 244 236 241 235 228 227 231 234 234 233 231 232 233 229 227 226 224 225 227 227 227 226 226 226 226 226 226 227 228 230 231 232 232 232 233 236 238 238 237 237 235 234 234 232 231 232 232 231 230 231 231 231 232 234 236 237 240 240 242 241 235 230 228 230 237 241 247 254 257 256
122 198 193 170 204 265 312 256 170 189 239 132 157 229 269 269 262 251 243 207 211 238 250 255 258 257 256 255 246 247 246 239 237 239 241 239 236 235 234 235 232 229 227 227 227 227 227 227 226 226 227 227 227 228 229 230 231 233 234 234 234 235 237 239 239 239 240 239 238 237 234 233 233 233 232 232 235 236 237 238 240 242 241 241 240 241 241 236 232 230 232 238 244 249 257 260 257
246 210 193 176 192 227 309 287 216 210 185 193 207 224 267 268 245 272 288 172 193 236 258 264 260 258 252 251 250 250 256 252 244 242 242 241 237 236 235 235 234 232 230 229 228 226 227 228 226 226 227 228 229 230 231 231 232 234 235 236 236 237 237 239 240 241 242 241 241 240 237 236 236 235 234 235 238 240 243 245 247 249 245 240 240 240 239 236 234 233 234 237 244 250 257 257 254
228 198 190 188 161 168 227 280 259 213 187 225 219 225 251 247 226 290 344 145 172 225 251 257 252 253 249 246 251 251 253 253 246 241 241 240 237 236 236 236 235 234 233 231 230 229 229 229 228 227 228 229 230 230 232 232 233 235 237 238 238 238 239 240 241 242 244 244 243 243 241 239 239 239 238 238 241 244 246 248 250 250 244 238 239 240 238 238 236 236 236 237 242 249 253 253 251
180 155 163 158 146 184 208 242 226 179 189 232 217 233 254 256 254 271 281 183 204 249 249 251 252 255 257 252 250 248 249 250 249 247 246 242 238 237 235 235 233 233 233 232 231 230 230 229 229 229 228 228 230 231 232 232 232 233 234 236 237 238 239 239 240 242 245 245 245 245 244 242 243 243 241 241 242 244 246 248 248 246 239 236 239 240 239 239 237 236 237 237 242 247 251 253 254
163 156 169 179 193 217 222 248 249 180 181 226 220 227 253 258 255 253 263 251 253 269 265 261 257 256 262 261 258 253 250 251 252 255 255 248 241 239 236 233 232 231 232 231 230 228 228 228 227 228 229 229 229 229 229 228 227 228 229 231 232 234 236 237 240 243 244 244 245 245 245 244 244 245 244 243 242 243 246 248 247 242 235 234 238 239 238 238 235 234 235 237 242 246 249 251 254
148 153 185 194 202 237 239 251 289 190 191 240 229 226 251 260 260 254 259 249 251 264 262 261 258 253 255 258 261 257 253 256 260 262 261 252 244 241 236 232 231 229 230 230 228 226 226 226 225 226 227 228 227 225 225 224 223 223 224 226 228 231 234 235 238 241 242 244 245 245 245 244 245 246 246 244 242 243 245 248 246 239 234 233 235 237 238 239 236 234 235 239 243 245 246 249 253
140 155 187 205 210 236 245 238 307 44 195 265 254 238 253 262 265 260 244 216 233 248 251 257 258 255 252 252 258 260 259 263 265 265 262 251 242 238 234 230 226 225 228 228 226 226 226 225 225 225 225 226 227 226 225 225 224 224 225 226 229 231 234 235 238 241 243 245 246 245 245 244 245 246 246 245 243 242 243 245 244 238 234 233 235 238 239 240 238 235 235 240 243 243 244 249 248
168 151 168 217 216 251 282 257 273 112 188 259 276 256 256 263 268 263 239 221 231 241 243 248 254 258 254 249 254 259 259 261 259 260 258 248 239 235 230 226 224 226 229 228 226 226 225 224 225 224 224 224 226 227 226 226 227 228 229 231 233 234 236 239 241 244 245 246 247 246 246 245 246 246 246 245 243 243 243 244 244 239 235 234 235 238 239 239 237 235 235 239 242 240 242 246 244
210 170 175 224 160 153 269 274 266 228 200 241 305 293 271 266 277 268 235 223 233 243 246 248 247 250 253 250 252 253 251 253 256 258 255 245 237 232 226 224 224 226 228 227 224 224 224 225 225 223 223 224 225 226 227 227 229 230 231 233 235 236 238 240 241 242 243 244 245 246 246 246 247 246 246 245 245 244 244 244 244 241 238 237 237 237 238 238 237 236 236 240 240 237 238 241 240
220 205 205 215 162 188 226 259 314 322 320 354 7 305 277 238 258 265 238 216 237 245 248 254 247 243 253 258 254 250 248 248 252 256 254 239 231 232 228 226 225 223 225 225 224 224 225 226 226 224 223 223 224 225 226 226 225 226 227 228 231 234 236 237 237 238 238 240 242 244 245 245 246 247 247 247 246 245 245 244 244 242 240 240 239 239 240 239 239 239 239 241 241 237 238 240 238
229 220 207 199 182 205 220 181 21 352 318 321 83 282 282 224 235 261 264 234 249 250 244 251 253 248 250 256 254 251 250 247 245 252 254 240 232 234 232 229 225 223 226 227 226 227 228 228 227 224 223 223 224 224 224 223 221 221 220 219 222 225 229 231 232 235 236 238 241 243 244 245 245 247 248 248 248 247 245 245 244 243 242 241 241 241 242 242 242 243 243 243 242 241 239 238 238
237 206 174 178 183 200 203 160 116 284 270 299 89 219 273 283 241 252 269 267 261 260 251 249 255 255 243 246 253 249 247 246 241 246 249 243 237 233 232 230 225 226 230 229 227 228 229 228 226 225 224 223 223 222 221 220 219 219 219 220 222 223 226 230 233 235 238 241 243 244 244 246 246 247 248 248 248 248 246 245 244 244 244 243 243 243 243 243 244 245 245 245 244 243 238 235 237
239 149 149 171 181 187 177 141 172 259 292 314 26 156 270 279 249 222 237 257 260 260 261 258 255 255 246 242 249 245 242 243 239 241 241 239 238 233 233 234 230 232 234 229 226 228 228 227 226 225 225 224 222 220 219 218 218 218 219 221 223 225 228 232 235 236 239 241 242 244 245 246 247 248 248 248 248 248 247 245 244 244 244 244 244 244 244 245 245 246 245 245 244 243 239 236 237
236 150 153 173 170 164 141 118 155 348 10 288 256 151 264 273 262 217 230 249 254 250 251 255 257 258 254 246 246 245 241 240 236 239 239 237 237 235 236 238 238 238 235 230 228 229 228 227 226 225 225 224 221 219 218 218 219 219 219 220 223 227 230 233 236 237 239 239 240 242 243 245 247 248 249 249 249 248 247 246 245 244 243 243 243 244 245 246 245 244 244 243 243 242 241 239 238
225 136 102 94 106 103 116 130 135 109 240 249 233 174 230 270 263 192 218 247 250 249 246 252 258 259 259 255 255 252 243 238 236 238 242 243 241 241 242 243 243 241 238 234 232 230 228 226 224 223 224 223 221 219 218 218 218 218 219 221 224 227 229 231 233 236 237 237 238 239 241 243 244 246 248 249 249 248 248 247 246 245 244 243 243 244 245 245 244 245 245 245 244 243 243 241 239
136 106 72 56 59 57 72 110 111 134 246 250 229 183 198 269 266 170 197 225 221 230 245 254 257 259 261 260 259 258 249 242 238 241 246 247 248 247 246 245 245 244 240 236 234 231 228 226 224 223 224 223 221 219 217 218 218 217 220 222 224 227 227 227 229 231 233 233 235 237 238 241 243 245 247 248 248 248 247 248 247 246 245 244 243 244 244 244 244 245 245 245 245 245 244 243 242
116 97 98 96 34 55 62 70 127 191 240 252 230 182 186 241 263 193 237 267 234 223 234 245 253 261 262 256 258 260 256 253 248 245 248 248 252 250 243 242 244 243 239 235 233 231 228 226 224 224 225 224 221 219 217 217 217 218 221 223 225 227 226 225 227 229 230 230 233 235 236 239 241 244 245 245 246 246 246 246 246 246 245 244 244 244 244 245 245 245 245 244 245 245 244 242 242
148 126 143 177 208 209 193 189 186 204 243 256 208 161 188 237 256 252 256 270 260 238 231 238 250 260 263 260 265 270 263 257 252 248 250 246 247 246 237 237 241 239 236 234 233 230 227 226 223 223 225 224 221 219 217 217 217 219 222 223 225 226 226 226 228 230 230 231 233 233 233 236 238 240 241 242 245 245 245 245 245 245 245 245 244 245 245 245 245 245 245 245 245 245 244 242 242
182 173 178 189 191 214 214 202 185 199 246 261 169 138 210 262 260 255 250 249 246 242 235 237 248 261 269 271 271 272 268 257 249 245 245 242 239 240 237 237 238 237 236 235 233 231 227 225 223 222 226 225 220 218 218 218 219 221 223 223 225 225 225 226 228 230 231 231 232 233 234 235 236 239 240 242 244 245 245 247 246 247 247 247 247 246 246 246 246 246 245 246 246 246 245 244 244
192 186 174 193 200 211 216 208 209 211 242 270 144 136 210 232 248 251 242 248 257 261 261 258 263 265 267 271 269 264 264 258 252 249 246 243 240 242 244 241 238 237 238 236 233 231 227 225 223 222 225 224 220 218 218 218 220 222 223 224 225 225 225 227 229 231 232 232 232 233 235 236 238 240 242 244 245 245 246 247 247 248 248 248 248 248 248 247 246 246 246 247 248 248 246 245 246
196 150 149 211 207 170 218 281 221 213 250 267 198 195 228 241 287 279 254 271 285 280 276 271 271 267 258 264 266 259 258 258 254 252 251 247 242 242 244 242 238 236 238 236 234 230 226 225 224 223 225 224 219 218 219 220 222 223 223 224 225 225 225 227 230 232 232 232 232 234 236 237 239 242 243 244 246 246 247 248 248 249 250 249 250 250 249 248 247 246 246 246 247 247 245 245 247
166 167 182 211 175 132 165 279 333 77 256 241 204 246 276 294 287 271 248 248 257 265 267 252 252 261 258 255 259 257 256 257 252 249 252 252 245 243 241 239 236 234 234 235 235 232 228 226 224 223 225 223 220 220 220 220 222 223 224 225 225 225 226 227 230 232 233 232 233 234 236 238 240 242 243 243 245 246 247 247 248 250 251 251 251 250 249 249 248 246 246 246 247 248 246 246 247
125 196 188 119 60 92 143 233 319 63 240 253 231 241 253 258 273 288 252 234 233 235 250 250 248 258 262 255 255 256 256 259 261 258 256 257 252 246 243 241 239 237 237 238 238 235 231 228 226 225 225 223 221 221 220 221 222 223 224 225 226 226 227 229 231 233 233 232 233 234 235 237 239 240 241 242 243 244 245 246 247 248 250 250 251 251 250 250 248 246 246 247 247 248 246 246 247
121 219 167 116 143 196 160 196 223 218 234 269 248 238 240 228 243 267 257 228 224 230 243 255 260 259 260 258 254 252 255 261 264 261 259 257 251 245 240 241 243 242 241 241 239 236 233 231 229 228 228 227 224 222 221 222 222 223 225 226 227 227 228 230 232 233 232 231 234 235 235 238 239 239 240 240 241 243 243 244 245 247 249 250 250 250 250 249 247 245 245 246 247 247 244 245 247
213 271 166 137 215 196 172 201 204 204 233 254 257 245 237 231 235 246 247 223 207 227 239 249 254 252 252 254 253 250 251 257 260 259 259 257 252 249 242 239 243 245 244 242 238 235 233 233 230 229 230 229 226 224 223 223 223 224 226 227 228 229 229 231 232 232 231 232 235 236 236 238 238 238 239 240 241 242 242 243 245 247 248 248 249 248 248 247 246 246 246 246 247 247 245 244 246
190 216 185 170 209 150 172 229 152 160 228 240 262 260 253 244 220 224 236 219 201 217 227 237 247 252 255 256 256 255 252 256 260 256 257 261 261 257 252 246 247 248 247 243 237 233 233 232 230 230 230 228 226 226 225 225 225 225 226 228 229 230 230 231 232 231 231 233 236 236 237 238 238 238 240 240 241 242 243 244 245 247 248 248 248 247 247 247 246 246 246 246 247 247 245 245 246
190 203 196 191 192 165 209 230 158 138 217 197 220 260 265 257 185 198 221 213 207 217 224 236 246 252 259 260 251 251 252 251 253 251 252 258 260 259 260 259 254 248 243 238 233 231 230 229 230 230 229 228 228 227 226 227 227 226 227 229 230 231 232 232 232 232 232 234 236 237 237 237 238 239 240 240 242 244 245 246 246 248 248 248 247 246 247 247 245 244 245 245 245 245 244 245 244